カタログに戻る

NOAA 16 DEB

運用中SSO
NORAD 41260·DEBRIS·🇺🇸 United States

打ち上げ Sep 21, 2000 から Vandenberg Space Force Base

Loading…

次のパス (今後24時間)

TLE

経年Source: Space-Track

元期: Sep 11, 2026, 04:24 UTC

1 41260U 00055FL  26254.18370953  .00001892  00000-0  84184-3 0  9996
2 41260  98.7624 335.8991 0021584 244.0105 115.8851 14.23980445554570

AllMySatでNOAA 16 DEBをリアルタイム追跡

Download on the App Store